STARLINK-35655

Last updated on Tue Dec 16 2025 00:02:05 GMT+0000 (Coordinated Universal Time)

1 66470U 25262Q 25349.21173757 .00046934 00000+0 11218-2 0 9996 2 66470 43.0001 56.9747 0001424 271.9960 88.0734 15.40757330 5949
UTC large
Height (km)
Speed (km/s)
/
Latitude / Longitude
Inclination (degrees)
Orbital Period (minutes)
Azimuth
Elevation
Range (km)
Doppler Factor

Next 0 passes for location: London (51.5072 / 0.1276)

Sorry there are no passes over London.